1st Responders/1st Detectors/Storm Spotters Weather Summary for Carter County, KY

Forecast Maps


Reg. NEXRAD Animation


National Fire Danger: Day 1 & 2 Map

Current NWS Watch/Warnings

SPC Convective Day 1 Outlook


Day 2 Outlook

(Click images to enlarge|Page will refresh every 5 minutes)
UK Ag. Weather Center Desktop Severe Weather Service[HERE]
Carter County, KY Hazardous Weather Outlook Webcast
(9 AM to 9 PM Mon-Fri)
[Fast]
[Dial-up]


UKAWC 1st Detectors/1st Responders Precision Weather Forecast For CARTER County, Kentucky
(based on the NWS County Digital Forecast)

ISSUED AT 18:00 UTC ON TUESDAY NOV 21 2017
DAY TUESDAY
EDT 3HR 3P 4P 5P 6P 7P
MAX/MIN -- -- -- -- 54°
TEMP 54° 54° 54° 52° 49°
SKY COVER 16% 20% 26% 32% 38%
Clouds
DEW PT 36° 36° 36° 36° 36°
RH 48% 48% 48% 51% 60%
POP 12HR -- -- -- -- --
RAIN/SNOW (liq.equ) -- -- -- -- --
SNOWFALL -- -- -- -- --
WIND SPEED(MPH) 14 13 10 9 8
WIND Gust(MPH) 17 15 14 10 9
WIND DIR SW SW SW SW SW
DEW -- -- -- -- --
HeatIndex 54 54 54 52 49
WIND CHILL -- -- -- -- --
SPRAY COND
DRY COND
LIVESTOCK COLDSTRESS



DAY WEDNESDAY THURSDAY FRIDAY SATURDAY SUNDAY MONDAY
EDT 6HR 8P 9P 10P 11P MIDN 1A 2A 3A 4A 5A 6A 7A 8A 9A 10A 11A NOON 1P 2P 3P 4P 5P 6P 7P 8P 9P 10P 11P MIDN 1A 2A 5A 8A 11A 2P 5P 8P 2A 8A 2P 8P 2A 8A 2P 8P 2A 8A 2P 8P 2A 8A 2P 8P
MAX/MIN -- -- -- -- -- -- -- -- -- -- -- -- 31° -- -- -- -- -- -- -- -- -- -- 38° -- -- -- -- -- -- -- -- 25° -- -- 43° -- -- 29° 52° -- -- 40° 52° -- -- 31° 38° -- -- 23° 40° --
TEMP 47° 45° 43° 40° 40° 38° 38° 36° 34° 34° 32° 31° 31° 31° 32° 34° 36° 36° 38° 38° 38° 38° 36° 34° 32° 31° 31° 29° 29° 29° 27° 25° 23° 31° 43° 43° 38° 31° 29° 49° 47° 41° 40° 52° 45° 36° 31° 38° 34° 29° 25° 38° 36°
SKY COVER 42% 45% 47% 52% 59% 67% 71% 70% 65% 58% 52% 46% 40% 33% 25% 20% 17% 17% 17% 16% 15% 13% 11% 8% 6% 5% 5% 5% 6% 9% 13% 34% 42% 36% 28% 32% 19% 11% 6% 3% 8% 48% 67% 39% 42% 40% 51% 50% 57% 32% 21% 17% 23%
Clouds
DEW PT 34° 34° 34° 34° 34° 34° 36° 34° 32° 31° 29° 27° 25° 25° 25° 25° 23° 23° 22° 22° 22° 22° 22° 22° 22° 22° 22° 22° 22° 22° 22° 22° 20° 23° 25° 25° 25° 25° 23° 29° 31° 31° 34° 38° 34° 29° 27° 25° 23° 22° 20° 22° 23°
RH 62% 67% 70% 76% 81% 89% 92% 92% 92% 88% 88% 84% 78% 78% 72% 66% 60% 59% 52% 51% 52% 52% 54% 63% 63% 65% 71% 75% 77% 74% 78% 84% 87% 72% 48% 46% 61% 75% 81% 43% 53% 67% 75% 58% 64% 75% 81% 57% 66% 74% 77% 50% 61%
POP 12HR 0% -- -- -- -- -- -- -- -- -- -- -- 6% -- -- -- -- -- -- -- -- -- -- -- 6% -- -- -- -- -- -- -- 0% -- -- -- 0% -- 0% -- 5% -- 11% -- 8% -- 4% -- 4% -- 1% -- 1%
RAIN/SNOW (liq.equ) 0.00in -- -- -- -- -- 0.00in -- -- -- -- -- 0.00in -- -- -- -- -- 0.00in -- -- -- -- -- 0.00in -- -- -- -- -- 0.00in -- 0.00in -- 0.00in -- 0.00in -- -- -- -- -- -- -- -- -- -- -- -- -- -- -- --
SNOWFALL 0in -- -- -- -- -- 0in -- -- -- -- -- 0in -- -- -- -- -- 0in -- -- -- -- -- 0in -- -- -- -- -- 0in -- 0in -- 0in -- 0in -- -- -- -- -- -- -- -- -- -- -- -- -- -- -- --
WIND SPEED(MPH) 7 7 7 7 7 7 7 7 7 7 7 7 7 7 7 7 7 6 6 6 6 6 6 5 5 2 2 1 0 0 0 0 0 1 5 2 2 2 2 6 5 8 8 9 7 7 7 8 7 5 5 6 5
WIND DIR SW SW W W W W NW NW NW NW NW NW N N N N N N N N N N N N N N N NE NE E E NE E SW W SW W SW SW SW S SW SW W W NW NW NW NW NW W W SW
HeatIndex 47 40 38 35 34 32 32 29 28 27 25 25 25 25 26 29 30 32 34 34 34 34 32 29 28 28 27 29 29 29 27 25 23 31 40 42 35 28 25 49 47 36 35 52 45 31 25 32 27 25 20 34 32
WIND CHILL -- 41° 39° 35° 35° 33° 33° 30° 28° 28° 26° 25° 25° 25° 26° 28° 30° 31° 34° 34° 34° 34° 31° 30° 28° -- -- -- -- -- -- -- -- -- 40° -- -- -- -- -- -- 36° 35° -- 41° 30° 25° 32° 28° 24° 19° 34° 32°
SPRAY COND
DRY COND
LIVESTOCK COLDSTRESS

Click on individual weather variable above in left-hand column (ie., TEMP, RH, QPF 12HR) to view state forecast maps






NWS 48 Hr. Forecast Maps,

Regional Hourly Observations For CARTER County, Kentucky
Issued at 200 PM EST TUE NOV 21 2017
NORTHEAST KENTUCKY
  
CITY           SKY/WX    TMP DP  RH WIND       PRES   REMARKS
LEXINGTON      SUNNY     58  31  35 SW17G26   29.97F                  
COVINGTON      PTSUNNY   55  32  41 SW12G24   29.92F                  
FRANKFORT      SUNNY     58  29  33 SW12G22   29.95F                  


Current NOWCAST not available:
Nowcasts are not issued routinely during fair weather. Only when
precipitation or other significant weather is occuring in this county will these
forecasts be issued. Currently, there is no short term forecast in effect.


Fire Weather Forecast For CARTER County, KY
Provided by the National Weather Service:

Issued at: Tue Nov 21 14:05:01 EST 2017

Cloud cover           PCldy        MClear       MClear       MClear       
Precip type           None         None         None         None         
Chance precip (%)     0            0            0            0            
Min/Max TEMP          31           42           25           45           
Max/Min RH %          82           46           90           42           
20ftWnd-val/AM(mph)                Lgt/Var                   Lgt/Var      
20ftWnd-rdg/PM(mph)   SW  6        Lgt/Var      Lgt/Var      Lgt/Var      
Precip amount         0.00         0.00         0.00         0.00         
Precip duration                                                           
Precip begin                                                              
Precip end                                                                
Mixing hgt(ft-AGL/MSL)             3490                      2270         
Transport wnd (mph)                N 14                      S  3         
Vent rate (kt-ft)                  48610                     9610         
Dispersion            POOR                      VERY POOR                 
LAL                   1            1            1            1            
Haines Index          3            4            2            3            
Stability class                                                           

REMARKS...None.

SPC's Fire Weather Web Tool (Excellent!), SPC's Fire Weather Outlooks, NWS Fire Weather WEB, Fire Danger Class Map,
Keetch-Byram Drought Index, ROMAN Web, Haines Index ,
WFAS's 10-hr Dead Fuel Moist., WFAS's 100-hr Dead Fuel Moist., Probablity of Ignition, Visual blackness Map, Palmer Drought Index, HPC's Rainfall Forecast Maps


Hazardous Weather Outlook For CARTER County, Kentucky
303 AM EST Tue Nov 21 2017

 DAY ONE  Today and Tonight.

No hazardous weather is expected at this time.

 DAYS TWO THROUGH SEVEN  Wednesday through Monday.

No hazardous weather is expected at this time.

 SPOTTER INFORMATION STATEMENT  

Spotter activation is not expected at this time.

Latest CARTER County, Kentucky Watches, Warnings and Advisories.
Additional Drought Info.: UKAWC Drought Page, Kentucky Drought Watch


7-Day Forecast For CARTER County, KY

THIS AFTERNOON
Sunny and not as cool. Near steady temperature in the mid 50s. Southwest winds 10 to 15 mph with gusts up to 30 mph.

TONIGHT
Partly cloudy in the evening, then becoming mostly cloudy. Cold with lows in the lower 30s. Southwest winds 5 to 10 mph, becoming northwest after midnight.

WEDNESDAY
Sunny. Much cooler with highs in the lower 40s. North winds 5 to 10 mph.

WEDNESDAY NIGHT
Mostly clear. Cold with lows in the mid 20s. Northeast winds around 5 mph.

THANKSGIVING DAY
Mostly sunny. Highs in the mid 40s. Southeast winds around 5 mph, becoming southwest around 5 mph in the afternoon.

THURSDAY NIGHT
Mostly clear. Cold with lows in the upper 20s.

FRIDAY
Sunny. Highs in the lower 50s.

FRIDAY NIGHT AND SATURDAY
Partly cloudy. Lows in the upper 30s. Highs in the mid 50s.

SATURDAY NIGHT AND SUNDAY
Partly cloudy. Lows in the lower 30s. Highs in the upper 40s.

SUNDAY NIGHT
Partly cloudy. Cold with lows in the mid 20s.

MONDAY
Sunny. Highs in the lower 40s.

Ag Weather Center, Department of Biosystems & Agricultural Engineering, University of Kentucky